Regional Weather Roundup
Issued by NWS

Home | Current Version | Previous Version | Graphics & Text | Print | Product List | Glossary On
Versions: 1 2 3 4 5 6 7 8 9 10 11 12 13 14 15 16 17 18 19 20 21 22 23 24 25 26 27 28 29 30 31 32 33 34 35 36 37 38 39 40 41 42 43 44 45 46 47 48 49 50
000
ASUS43 KFSD 210502
RWRSD

WEATHER ROUNDUP FOR SOUTH DAKOTA
NATIONAL WEATHER SERVICE SIOUX FALLS SD
1100 PM CST MON NOV 20 2017

NOTE: "FAIR" INDICATES FEW OR NO CLOUDS BELOW 12,000 FEET WITH NO
SIGNIFICANT WEATHER AND/OR OBSTRUCTIONS TO VISIBILITY.


SDZ001>005-009-010-012>017-210600-
NORTHWEST AND NORTH CENTRAL SOUTH DAKOTA

CITY           SKY/WX    TMP DP  RH WIND       PRES   REMARKS
BUFFALO          N/A     30  25  81 NW17      29.81R WCI  18
FAITH            N/A     36  19  50 N18       29.83R
MOBRIDGE       CLOUDY    40  18  41 NW16      29.75R
$$

SDZ012>016-024>037-041>051-057-063-072>074-210600-
SOUTHWEST AND SOUTH CENTRAL SOUTH DAKOTA

CITY           SKY/WX    TMP DP  RH WIND       PRES   REMARKS
RAPID CTY ARPT CLOUDY    40  26  57 N15       29.81R
PIERRE         CLOUDY    41  24  51 N21       29.77R
CUSTER         CLOUDY    37  20  50 E8        29.77R
ELLSWORTH AFB  CLOUDY    40  26  59 N14       29.81R
PHILIP         CLOUDY    42  28  57 N16       29.81R
PINE RIDGE     CLOUDY    35  23  61 NE5       29.77R
SPEARFISH      MOCLDY    37  28  70 N12       29.84R
WINNER         FAIR      43  24  47 NW5       29.78R
$$

SDZ004>011-016>023-039-040-210600-
NORTHEAST SOUTH DAKOTA

CITY           SKY/WX    TMP DP  RH WIND       PRES   REMARKS
ABERDEEN       CLOUDY    36  20  52 NW16      29.73R
WATERTOWN      MOCLDY    34  18  52 NW18G28   29.67R WCI  23
BROOKINGS      PTCLDY    36  26  67 NW12      29.70R
SISSETON         N/A     34  18  52 NW17G30   29.67R WCI  23
$$

SDZ017-020-022-023-036>040-048>070-210600-
SOUTHEAST SOUTH DAKOTA

CITY           SKY/WX    TMP DP  RH WIND       PRES   REMARKS
SIOUX FALLS    PTCLDY    39  25  57 NW9       29.69R
HURON          CLOUDY    35  25  66 N8        29.75R WCI  29
CHAMBERLAIN    CLOUDY    45  28  52 N8        29.77R
MITCHELL       CLOUDY    43  26  51 N14       29.75R
YANKTON        CLOUDY    42  25  50 NW12      29.72R
$$

ABBREVIATIONS USED IN REMARKS
   TC - TEMPERATURE IN CELSIUS
  WCI - WIND CHILL INDEX
   HX - HEAT INDEX
  VSB - VISIBILITY




USA.gov is the U.S. government's official web portal to all federal, state and local government web resources and services.